Weather in Yellowknife

Canada     62°27′18″N   114°25′33″W
temp.,
°C
wind,
m/s
gust,
m/s
humid.,
%
clouds,
%
prec.,
mm/h
press.,
hPa
HPBL,
m
28 february, sun
sun2823:00−39ne23860 0.0 102918
02:00−40ne12820 0.0 103018
05:00−40e12800 0.0 103018
08:00−39ese23790 0.0 102918
11:00−33sse34800 0.0 1028203
14:00−29ese469454 0.0 1025291
17:00−28ese598677 0.0 1022292
20:00−28ese61185100 0.0 1018296
1 march, mon
mon123:00−25ese61185100 0.1 1015402
02:00−24e5998100 0.5 1013403
05:00−24e4798100 1.7 1012383
08:00−24ne3598100 0.8 1012281
11:00−22ne3494100 1.2 1012322
14:00−19ne3488100 0.2 1012520
17:00−19nne3486100 0.2 1012135
20:00−26ne448162 0.0 101341
2 march, tue
tue223:00−28ene447468 0.0 101341
02:00−29e347791 0.0 101332
05:00−31e448357 0.0 101443
08:00−31ese488962 0.0 1013156
11:00−26ese589481 0.0 1011256
14:00−22ese6994100 0.0 1008391
17:00−21ese61197100 0.3 1006557
20:00−18ese51097100 0.8 1005605
3 march, wed
wed323:00−18se4896100 1.1 1004430
02:00−19ese4698100 0.1 1004177
05:00−21e349899 0.2 100543
08:00−23ene339885 0.0 100723
11:00−18ne229159 0.0 1009229
14:00−15nnw2385100 0.0 1012402
17:00−16nnw3591100 0.1 1015224
20:00−21nw459653 0.0 101960
4 march, thu
thu423:00−23nnw349327 0.0 102240
02:00−24nnw44920 0.0 102649
05:00−25n44920 0.0 102947
08:00−26n33920 0.0 103123
11:00−21nne23880 0.0 1032230
14:00−17ne238419 0.0 1033374
17:00−17ene239259 0.0 103354
20:00−20e479922 0.0 1033103